Temp
-11 -11 -11 -11 -11 -11 -11 -11 -12 -13 -13 -13 -12 -13 -13 -13 -13 -13 -15 -16 -17 -18 -19 -20 -21 -20 -20 -18 -16 -14 -14 -14 -14 -13 -12 -12 -12 -12 -11 -11 -11 -10 -10 -10 -10 -10 -10
-12 -11 -11 -11 -11 -11 -11 -11 -12 -13 -13 -13 -13 -13 -13 -14 -13 -14 -15 -16 -18 -20 -20 -21 -22 -21 -21 -18 -17 -16 -15 -14 -14 -13 -12 -12 -12 -12 -12 -11 -11 -10 -11 -10 -10 -11 -10
-12 -12 -11 -11 -11 -12 -12 -12 -13 -13 -13 -13 -14 -13 -14 -14 -14 -14 -15 -17 -19 -21 -21 -22 -23 -22 -21 -19 -17 -17 -15 -15 -14 -13 -13 -13 -13 -12 -12 -12 -11 -10 -10 -10 -10 -11 -10
-12 -12 -12 -11 -12 -12 -12 -12 -13 -13 -13 -13 -14 -14 -14 -14 -15 -15 -16 -18 -20 -21 -21 -23 -23 -23 -21 -20 -19 -17 -16 -15 -14 -14 -13 -14 -14 -13 -12 -12 -11 -10 -10 -10 -11 -11 -11
-12 -12 -12 -12 -12 -12 -12 -12 -13 -13 -13 -13 -14 -14 -14 -14 -15 -16 -17 -19 -20 -21 -22 -23 -23 -23 -22 -21 -19 -18 -16 -15 -14 -14 -14 -14 -14 -13 -13 -12 -11 -11 -10 -10 -11 -10 -10
-12 -12 -12 -12 -12 -12 -13 -12 -13 -13 -13 -14 -14 -15 -14 -15 -16 -17 -17 -19 -20 -21 -21 -23 -23 -23 -22 -21 -19 -18 -16 -15 -14 -14 -14 -14 -14 -13 -13 -12 -11 -11 -9 -10 -11 -10 -10
-13 -13 -12 -12 -12 -13 -13 -13 -13 -14 -13 -14 -15 -15 -15 -15 -16 -17 -18 -19 -20 -21 -21 -23 -23 -23 -22 -21 -19 -18 -16 -15 -15 -15 -14 -14 -14 -12 -12 -12 -12 -11 -10 -11 -11 -11 -10
-13 -13 -13 -13 -13 -13 -13 -13 -13 -14 -14 -14 -14 -15 -15 -15 -16 -17 -18 -19 -20 -20 -21 -22 -23 -22 -23 -22 -20 -17 -16 -15 -15 -14 -14 -14 -14 -13 -13 -13 -12 -11 -10 -11 -11 -10 -11
-13 -13 -13 -13 -13 -13 -13 -13 -13 -14 -14 -14 -14 -15 -15 -15 -16 -17 -18 -19 -20 -21 -21 -22 -23 -23 -22 -22 -19 -17 -16 -15 -15 -15 -14 -14 -14 -14 -13 -12 -12 -11 -11 -11 -11 -10 -11
-14 -13 -13 -13 -14 -13 -14 -13 -13 -14 -14 -14 -14 -15 -15 -15 -16 -17 -18 -19 -20 -21 -21 -21 -21 -22 -22 -21 -19 -17 -16 -15 -15 -14 -14 -14 -14 -13 -13 -13 -12 -11 -12 -11 -11 -11 -11
-14 -14 -13 -14 -14 -14 -14 -14 -14 -14 -15 -15 -15 -15 -15 -15 -16 -17 -17 -18 -19 -20 -21 -21 -22 -22 -21 -20 -18 -17 -17 -16 -15 -14 -14 -14 -14 -13 -13 -13 -12 -12 -12 -12 -11 -11 -11
-14 -14 -13 -14 -14 -14 -14 -14 -14 -14 -15 -15 -15 -15 -15 -15 -15 -16 -17 -18 -18 -20 -20 -21 -21 -21 -21 -19 -18 -17 -16 -16 -15 -15 -15 -15 -14 -14 -14 -13 -13 -13 -13 -13 -11 -11 -10
-14 -14 -14 -14 -14 -14 -14 -14 -14 -14 -15 -15 -16 -15 -15 -15 -15 -16 -17 -17 -17 -18 -19 -20 -21 -21 -20 -18 -17 -16 -15 -15 -15 -15 -15 -15 -14 -14 -14 -13 -12 -13 -14 -13 -12 -11 -10
-15 -15 -14 -14 -14 -14 -14 -14 -14 -14 -15 -15 -16 -16 -15 -15 -15 -15 -16 -16 -17 -17 -18 -19 -20 -20 -18 -18 -17 -16 -15 -15 -15 -15 -14 -14 -14 -13 -13 -12 -12 -13 -13 -12 -11 -11 -10
-15 -15 -15 -14 -14 -14 -14 -14 -14 -14 -14 -15 -15 -15 -16 -15 -15 -15 -15 -16 -17 -17 -18 -18 -19 -19 -18 -18 -17 -17 -15 -15 -14 -14 -14 -14 -13 -13 -13 -13 -13 -13 -12 -13 -12 -11 -11
-15 -15 -15 -15 -14 -14 -14 -14 -14 -14 -14 -14 -14 -15 -15 -15 -15 -15 -15 -16 -17 -17 -17 -17 -18 -17 -18 -17 -17 -17 -16 -15 -14 -14 -14 -14 -13 -13 -13 -13 -13 -13 -14 -13 -12 -12 -11
-15 -15 -15 -15 -14 -15 -14 -14 -15 -14 -14 -14 -14 -15 -15 -15 -14 -15 -14 -15 -16 -17 -16 -17 -17 -17 -17 -16 -16 -16 -15 -15 -15 -14 -14 -14 -13 -13 -13 -12 -12 -12 -12 -12 -12 -11 -11
-16 -15 -15 -15 -14 -15 -15 -14 -15 -14 -14 -14 -14 -14 -15 -14 -14 -14 -14 -15 -15 -16 -16 -16 -16 -16 -17 -16 -16 -16 -15 -15 -15 -14 -13 -13 -13 -14 -13 -12 -13 -13 -13 -13 -13 -12 -12
-16 -16 -15 -15 -15 -15 -15 -14 -15 -14 -14 -14 -14 -14 -15 -14 -14 -14 -14 -14 -15 -15 -16 -15 -15 -16 -16 -16 -16 -16 -15 -15 -15 -14 -13 -13 -13 -13 -13 -13 -13 -13 -13 -13 -13 -13 -12
-16 -16 -15 -15 -15 -15 -15 -15 -15 -15 -15 -14 -14 -14 -15 -14 -14 -14 -14 -14 -14 -15 -15 -15 -15 -15 -16 -15 -15 -15 -15 -15 -15 -14 -14 -14 -13 -13 -13 -12 -13 -13 -13 -13 -13 -12 -12
-17 -16 -16 -16 -15 -15 -15 -15 -15 -15 -15 -14 -15 -14 -14 -14 -14 -14 -14 -14 -14 -14 -14 -14 -15 -15 -15 -15 -15 -15 -15 -15 -15 -15 -15 -15 -15 -15 -14 -14 -14 -14 -14 -14 -13 -13 -13
-17 -16 -16 -16 -15 -15 -16 -15 -15 -16 -15 -15 -15 -14 -14 -15 -14 -14 -14 -14 -14 -14 -14 -15 -15 -15 -15 -15 -15 -15 -15 -15 -15 -15 -15 -15 -15 -15 -14 -14 -14 -14 -14 -14 -13 -13 -12
-18 -17 -16 -16 -16 -15 -16 -15 -15 -16 -15 -15 -16 -14 -14 -15 -14 -14 -14 -14 -14 -14 -14 -14 -15 -15 -15 -15 -15 -15 -15 -15 -15 -15 -15 -14 -14 -14 -14 -14 -14 -14 -13 -13 -13 -13 -13
-18 -17 -16 -16 -16 -16 -16 -16 -15 -16 -16 -15 -16 -15 -14 -15 -14 -14 -14 -14 -14 -14 -14 -14 -14 -14 -14 -15 -15 -15 -15 -15 -15 -15 -15 -15 -15 -15 -15 -14 -14 -13 -14 -14 -13 -13 -13
-18 -18 -17 -16 -16 -16 -16 -16 -16 -16 -16 -15 -16 -15 -15 -15 -15 -15 -14 -14 -14 -14 -14 -14 -14 -14 -15 -15 -15 -15 -15 -15 -15 -15 -15 -15 -15 -15 -15 -14 -14 -13 -13 -14 -14 -13 -14
-19 -18 -17 -17 -16 -16 -16 -16 -16 -16 -16 -16 -16 -16 -15 -15 -15 -15 -15 -14 -14 -14 -14 -14 -14 -14 -15 -15 -15 -15 -15 -14 -14 -15 -15 -16 -16 -15 -15 -14 -14 -14 -14 -14 -14 -13 -14
-19 -19 -17 -17 -17 -17 -16 -16 -16 -16 -16 -16 -16 -16 -15 -15 -15 -15 -15 -15 -15 -15 -15 -14 -15 -15 -15 -15 -15 -14 -14 -15 -15 -15 -15 -15 -15 -15 -15 -15 -15 -14 -14 -14 -14 -14 -15
-18 -18 -18 -18 -17 -17 -17 -17 -16 -17 -16 -16 -16 -16 -15 -15 -15 -15 -15 -15 -15 -15 -14 -14 -14 -14 -14 -14 -14 -15 -14 -15 -15 -15 -15 -15 -15 -15 -15 -15 -14 -14 -14 -14 -14 -14 -14
-19 -18 -18 -18 -17 -17 -17 -17 -16 -17 -17 -16 -16 -16 -16 -15 -15 -15 -15 -15 -15 -15 -15 -14 -14 -14 -14 -13 -14 -14 -14 -14 -14 -14 -14 -14 -14 -14 -14 -14 -14 -14 -14 -14 -14 -14 -14
Height
5744 5740 5735 5729 5724 5718 5712 5705 5698 5693 5690 5687 5683 5679 5672 5665 5659 5650 5643 5639 5633 5628 5624 5621 5620 5622 5623 5635 5662 5674 5689 5705 5714 5723 5734 5742 5750 5760 5771 5778 5780 5787 5792 5794 5797 5801 5804
5738 5734 5729 5723 5717 5711 5705 5699 5691 5687 5684 5680 5675 5669 5662 5656 5648 5639 5632 5626 5620 5615 5612 5607 5606 5608 5612 5628 5654 5654 5672 5690 5702 5715 5728 5736 5747 5758 5763 5768 5774 5782 5784 5789 5793 5795 5800
5733 5728 5724 5718 5711 5705 5699 5693 5687 5682 5678 5673 5667 5660 5653 5647 5638 5629 5622 5614 5609 5605 5601 5596 5595 5596 5606 5631 5631 5639 5662 5678 5692 5709 5721 5734 5743 5748 5757 5763 5769 5773 5778 5784 5790 5793 5794
5728 5723 5718 5712 5706 5700 5693 5687 5682 5676 5671 5666 5660 5653 5646 5638 5629 5620 5612 5605 5599 5595 5590 5585 5585 5588 5601 5609 5614 5630 5650 5669 5684 5701 5715 5725 5733 5741 5750 5757 5762 5767 5774 5780 5786 5786 5789
5722 5718 5712 5708 5702 5694 5687 5682 5676 5671 5665 5660 5654 5647 5640 5630 5622 5613 5605 5599 5593 5589 5583 5576 5578 5582 5590 5599 5612 5626 5643 5660 5674 5692 5707 5716 5722 5731 5740 5749 5756 5760 5771 5777 5779 5781 5786
5715 5712 5707 5702 5697 5689 5682 5676 5670 5665 5659 5654 5649 5641 5632 5623 5615 5606 5599 5593 5587 5583 5578 5573 5572 5577 5587 5597 5603 5618 5634 5649 5666 5683 5696 5706 5713 5723 5733 5742 5747 5763 5770 5774 5775 5779 5781
5709 5706 5702 5698 5691 5684 5677 5672 5666 5660 5653 5649 5643 5635 5626 5618 5610 5601 5593 5587 5584 5578 5575 5572 5572 5576 5581 5589 5598 5613 5628 5643 5659 5676 5688 5699 5706 5714 5732 5747 5753 5757 5761 5767 5769 5771 5779
5703 5700 5697 5692 5685 5680 5673 5667 5661 5655 5649 5644 5638 5630 5622 5613 5605 5597 5589 5584 5579 5576 5572 5569 5568 5572 5575 5581 5591 5607 5622 5639 5657 5674 5682 5694 5701 5721 5733 5738 5745 5750 5758 5764 5766 5769 5774
5696 5694 5691 5686 5680 5675 5669 5663 5657 5651 5644 5639 5634 5627 5619 5609 5601 5593 5586 5580 5575 5572 5571 5568 5567 5571 5574 5581 5592 5607 5623 5638 5653 5668 5681 5692 5707 5716 5724 5733 5741 5749 5756 5760 5763 5765 5771
5688 5687 5684 5680 5675 5669 5664 5659 5654 5647 5640 5635 5630 5623 5617 5607 5599 5592 5585 5579 5574 5571 5568 5568 5569 5570 5576 5580 5591 5606 5621 5638 5653 5668 5681 5691 5702 5713 5721 5731 5738 5746 5752 5753 5758 5761 5766
5680 5679 5678 5674 5670 5664 5660 5655 5650 5643 5637 5631 5626 5620 5614 5607 5597 5591 5586 5579 5574 5569 5567 5566 5566 5569 5574 5584 5595 5607 5622 5638 5655 5669 5675 5687 5701 5709 5718 5729 5738 5747 5745 5750 5754 5757 5762
5671 5671 5670 5668 5665 5659 5655 5650 5646 5640 5634 5628 5623 5618 5613 5607 5599 5591 5585 5579 5574 5571 5566 5562 5562 5568 5574 5583 5595 5608 5623 5639 5653 5662 5675 5686 5698 5703 5717 5728 5735 5738 5740 5744 5748 5751 5757
5662 5663 5662 5661 5659 5655 5650 5646 5642 5637 5631 5626 5621 5616 5611 5606 5600 5591 5585 5580 5575 5569 5567 5564 5563 5568 5576 5587 5598 5612 5625 5637 5648 5657 5666 5682 5694 5704 5715 5720 5727 5730 5736 5740 5746 5749 5757
5652 5654 5654 5653 5653 5650 5646 5642 5638 5634 5629 5624 5620 5615 5610 5605 5599 5593 5587 5583 5579 5576 5573 5567 5567 5572 5580 5589 5601 5613 5625 5639 5650 5663 5674 5677 5685 5697 5706 5716 5724 5727 5735 5740 5742 5746 5751
5642 5645 5646 5645 5646 5644 5641 5638 5635 5631 5627 5622 5619 5615 5609 5605 5599 5595 5589 5585 5583 5581 5578 5573 5574 5579 5585 5599 5609 5618 5631 5642 5651 5658 5668 5677 5690 5700 5708 5716 5720 5724 5729 5735 5737 5740 5745
5632 5636 5638 5638 5639 5639 5637 5633 5631 5628 5624 5620 5618 5614 5610 5605 5600 5597 5593 5588 5589 5588 5584 5581 5584 5586 5590 5599 5613 5620 5629 5641 5650 5660 5669 5679 5690 5697 5705 5711 5713 5719 5727 5729 5732 5736 5741
5622 5626 5630 5630 5631 5633 5631 5628 5627 5624 5621 5617 5616 5614 5610 5606 5602 5599 5595 5592 5591 5592 5593 5592 5593 5599 5601 5606 5616 5625 5633 5642 5651 5658 5665 5676 5686 5694 5701 5704 5709 5716 5721 5726 5729 5732 5735
5611 5617 5621 5622 5624 5627 5626 5624 5623 5621 5619 5616 5615 5614 5611 5607 5606 5602 5597 5594 5595 5596 5598 5602 5607 5609 5610 5614 5618 5628 5637 5648 5653 5660 5668 5676 5683 5689 5697 5701 5707 5712 5716 5720 5723 5729 5731
5602 5607 5611 5614 5616 5620 5620 5619 5619 5617 5616 5614 5613 5613 5611 5608 5608 5605 5602 5599 5597 5599 5601 5604 5609 5612 5617 5621 5627 5631 5640 5646 5654 5660 5666 5673 5679 5684 5690 5696 5701 5707 5712 5716 5720 5723 5727
5592 5598 5603 5606 5609 5613 5614 5614 5614 5614 5613 5612 5612 5612 5612 5609 5609 5607 5605 5602 5600 5601 5603 5605 5608 5611 5615 5623 5629 5636 5641 5647 5653 5660 5665 5670 5675 5681 5688 5697 5702 5705 5711 5715 5716 5718 5722
5582 5589 5594 5598 5601 5605 5608 5608 5609 5611 5609 5610 5609 5610 5611 5609 5610 5609 5607 5605 5603 5604 5604 5607 5611 5614 5620 5627 5631 5636 5642 5649 5654 5657 5663 5669 5673 5679 5684 5690 5695 5701 5705 5707 5709 5714 5714
5570 5578 5585 5589 5593 5597 5601 5601 5603 5606 5606 5607 5607 5608 5611 5609 5609 5609 5608 5608 5606 5606 5607 5609 5613 5617 5621 5627 5635 5641 5644 5649 5655 5659 5664 5668 5673 5678 5683 5688 5692 5696 5699 5701 5704 5707 5710
5559 5567 5576 5581 5585 5589 5594 5596 5598 5600 5602 5603 5604 5605 5608 5608 5608 5610 5610 5610 5610 5609 5610 5612 5614 5618 5623 5627 5632 5637 5643 5649 5655 5660 5664 5668 5672 5677 5681 5684 5687 5690 5696 5698 5701 5703 5705
5549 5558 5566 5572 5577 5581 5587 5589 5591 5594 5597 5599 5601 5602 5605 5608 5608 5609 5610 5611 5612 5613 5613 5615 5617 5621 5625 5629 5632 5636 5642 5647 5652 5656 5661 5664 5669 5672 5677 5679 5682 5689 5691 5694 5697 5699 5702
5539 5549 5557 5563 5569 5573 5579 5582 5585 5588 5592 5594 5597 5599 5602 5605 5606 5608 5610 5612 5612 5614 5616 5618 5620 5623 5626 5629 5634 5638 5642 5647 5650 5654 5659 5664 5667 5672 5675 5678 5683 5686 5689 5692 5693 5696 5696
5528 5540 5549 5555 5561 5566 5572 5576 5578 5582 5586 5589 5592 5595 5599 5602 5605 5606 5608 5610 5613 5614 5617 5619 5622 5624 5627 5630 5633 5637 5641 5646 5649 5653 5657 5663 5666 5670 5673 5674 5678 5682 5685 5687 5688 5688 5689
5518 5529 5539 5546 5553 5558 5564 5569 5572 5576 5580 5584 5588 5592 5596 5600 5602 5605 5607 5609 5612 5614 5616 5620 5623 5625 5628 5631 5634 5638 5643 5647 5650 5654 5658 5661 5665 5667 5669 5670 5672 5677 5678 5678 5680 5687 5684
5508 5519 5529 5537 5544 5551 5557 5562 5565 5569 5575 5579 5583 5588 5592 5596 5600 5602 5605 5608 5610 5613 5617 5621 5624 5627 5630 5633 5636 5639 5643 5647 5650 5653 5656 5658 5660 5662 5664 5665 5668 5671 5673 5674 5676 5676 5677
5499 5511 5520 5528 5536 5544 5550 5555 5559 5563 5569 5573 5577 5582 5587 5592 5596 5599 5602 5606 5609 5613 5616 5619 5623 5626 5629 5631 5636 5639 5643 5645 5649 5651 5653 5656 5657 5660 5661 5663 5663 5665 5667 5667 5668 5670 5671
Wind_Speed
26 30 31 33 33 32 34 34 35 29 30 33 28 30 34 37 41 43 40 38 44 44 36 44 48 43 54 66 67 73 71 64 63 59 58 55 53 45 39 35 36 31 30 32 32 30 25
27 29 32 33 32 32 35 38 33 28 31 28 32 33 33 35 39 40 36 40 37 34 34 40 40 41 45 57 61 72 74 68 66 60 58 57 51 41 41 39 36 32 35 36 30 28 26
29 30 32 33 32 33 33 38 30 27 32 32 35 32 33 35 38 37 36 35 32 30 33 36 39 44 45 41 64 71 74 70 69 62 56 51 47 46 41 39 35 37 36 33 28 27 30
29 31 32 33 32 32 32 36 30 28 33 31 31 33 31 36 36 37 35 31 29 28 33 34 37 40 40 47 59 68 72 70 69 63 56 52 50 47 43 42 38 37 33 30 28 33 30
30 31 32 34 33 32 31 35 32 29 33 30 30 30 34 37 36 34 31 27 25 28 27 26 32 33 42 41 51 62 69 70 71 64 58 53 51 50 47 43 40 38 31 30 31 33 27
30 31 32 33 33 33 30 32 35 30 32 27 29 32 36 39 35 30 27 25 23 29 22 23 26 34 30 38 46 59 69 72 70 65 60 56 51 53 50 45 45 31 30 29 32 30 27
30 31 32 34 33 33 30 30 36 29 30 30 30 32 40 41 35 26 25 24 23 23 18 15 17 22 27 35 47 58 68 71 69 66 63 58 55 57 48 35 32 33 37 31 33 33 25
31 31 31 35 33 33 31 29 35 29 29 30 31 32 39 41 36 21 15 17 20 22 21 11 18 24 26 29 47 59 68 69 68 66 63 59 55 44 38 38 38 36 34 30 31 30 25
33 31 32 35 34 33 32 28 31 30 27 28 32 28 34 28 33 22 13 11 18 16 16 9 13 20 24 26 45 58 64 69 67 66 63 59 49 43 42 40 36 32 30 27 29 29 23
33 33 33 34 35 32 33 28 29 32 24 27 30 33 34 34 30 20 15 10 18 14 13 13 8 18 24 28 46 58 62 66 65 64 60 56 48 42 41 39 34 30 25 29 29 27 23
34 34 34 34 34 32 33 29 28 31 22 24 32 28 24 29 33 27 22 14 13 13 23 17 15 13 28 28 46 59 60 64 58 60 63 58 49 51 43 36 30 22 27 27 29 26 25
35 35 35 33 33 31 31 29 27 30 20 20 28 22 24 29 33 30 25 21 19 11 18 6 16 18 30 37 49 56 62 62 57 61 58 56 49 42 38 32 25 30 30 28 30 29 29
36 34 35 33 31 31 28 28 26 28 16 17 23 22 18 25 31 29 21 19 19 18 13 9 11 26 31 44 52 55 61 61 54 61 59 53 49 45 36 35 33 33 32 28 28 27 21
37 34 34 34 30 29 28 25 24 26 14 14 19 22 20 19 22 24 16 14 16 13 6 12 17 32 41 51 53 57 61 59 55 52 53 55 55 49 45 36 35 32 29 23 25 24 23
40 34 34 33 29 28 28 22 21 24 14 11 16 22 21 17 19 25 15 8 13 3 4 8 23 35 48 37 44 50 53 56 54 51 52 52 48 42 37 34 33 31 34 28 25 26 24
42 36 34 33 29 26 27 23 18 22 16 10 13 22 21 16 17 26 13 1 4 4 10 10 21 47 55 53 50 48 50 51 47 49 46 44 44 44 38 37 40 37 30 31 30 28 25
44 38 34 33 31 25 26 24 17 20 17 9 10 18 16 14 12 17 21 4 8 8 11 13 32 42 47 50 48 50 51 48 42 43 44 41 40 39 38 38 37 35 32 30 29 29 26
44 40 35 33 32 24 26 23 17 17 16 9 7 14 8 9 12 18 21 9 7 10 12 15 29 32 34 47 44 38 33 32 32 33 36 39 36 37 38 38 38 37 33 30 32 30 26
44 41 37 33 33 25 25 22 19 15 16 10 4 13 5 6 7 7 12 9 11 11 14 15 23 29 33 44 38 32 26 26 28 27 31 34 39 37 37 37 39 33 30 30 29 27 25
42 42 39 34 33 26 25 23 20 14 15 10 5 7 3 5 4 7 7 9 3 7 10 17 23 22 38 40 29 25 33 27 28 24 27 34 36 37 36 26 26 27 25 25 27 27 24
45 42 40 36 33 29 25 22 21 14 15 11 8 7 7 5 5 5 6 8 4 5 10 17 23 24 26 39 27 30 29 30 28 28 26 26 33 31 31 33 33 29 28 29 29 24 27
43 44 41 39 35 29 25 21 22 18 14 12 12 10 12 5 1 7 8 10 7 10 13 17 20 21 19 25 31 27 25 29 24 29 28 26 34 30 28 31 30 31 31 30 29 26 26
48 44 43 39 35 32 24 21 23 21 16 13 16 12 17 11 4 2 6 6 11 13 14 17 20 19 20 20 25 33 31 27 22 27 24 22 29 30 32 31 30 32 31 28 27 26 26
52 48 43 40 36 33 25 21 23 21 17 15 21 16 16 16 10 7 5 6 10 13 14 12 16 16 16 18 21 28 31 28 28 31 27 27 30 31 27 28 31 27 27 27 27 26 25
50 47 42 40 36 32 27 22 23 21 18 17 25 20 16 15 14 12 8 7 11 9 14 14 13 17 11 15 26 26 27 30 32 32 31 26 26 24 25 26 25 25 28 27 28 27 28
52 49 43 39 35 32 28 23 24 22 19 19 28 25 19 13 17 14 11 9 14 16 14 14 16 15 16 19 19 21 23 29 33 33 31 27 28 29 30 30 29 25 26 25 29 31 26
58 51 46 39 35 33 29 25 25 22 20 20 30 29 24 18 17 17 14 14 16 18 19 20 19 21 20 16 18 27 24 19 18 17 21 29 34 30 32 35 35 30 26 30 31 26 23
58 51 47 42 38 36 31 28 27 24 21 22 30 32 29 23 18 20 19 19 21 20 19 20 20 19 19 18 19 20 17 16 18 18 20 20 23 23 23 22 24 21 24 27 26 27 27
51 54 49 47 43 38 33 30 30 26 24 25 27 33 33 29 24 20 18 19 24 22 20 19 18 16 16 17 16 15 16 15 15 16 18 20 21 19 21 20 20 20 21 23 24 25 26
Wind_Direction
318 323 325 327 328 324 322 327 321 307 302 305 295 296 301 304 309 309 299 288 287 280 275 270 256 238 232 225 220 218 214 214 213 214 211 217 221 223 223 223 226 221 222 225 228 231 230
313 320 323 326 329 326 325 329 318 312 320 303 311 307 306 309 315 311 302 297 295 277 284 272 254 234 233 224 216 218 211 211 211 211 212 216 220 220 221 220 221 218 221 222 224 236 230
311 318 321 324 328 324 327 330 320 317 319 301 316 314 310 312 320 314 303 303 301 284 289 267 248 231 229 215 213 215 208 206 210 208 210 214 217 219 219 221 218 216 218 219 220 231 234
306 313 319 322 325 324 327 332 321 320 317 312 319 319 319 318 324 317 303 305 301 298 296 267 244 231 217 211 211 210 206 203 207 205 208 210 213 217 218 220 218 218 215 214 220 225 232
302 310 316 319 321 322 327 330 324 320 319 316 326 328 328 326 324 318 300 304 300 293 297 269 240 236 212 209 207 206 203 199 204 202 205 208 211 213 215 217 219 218 210 210 218 224 230
297 305 312 315 318 321 326 329 327 321 320 323 328 333 334 323 324 321 305 300 300 290 300 270 229 228 213 211 203 202 199 198 199 200 203 205 210 213 215 214 217 215 212 211 219 226 223
290 299 307 310 316 320 325 330 331 317 321 322 327 336 339 330 324 327 309 305 300 284 296 266 230 213 205 204 200 200 195 196 196 198 202 203 211 213 214 216 218 213 214 213 216 226 222
284 293 300 307 314 318 324 328 331 318 320 323 323 334 337 337 325 329 324 320 304 285 272 277 220 210 205 200 192 197 193 193 195 196 200 204 211 212 209 210 216 213 214 217 224 228 223
280 287 294 302 311 316 322 327 329 324 319 330 326 331 342 339 336 326 358 332 306 278 266 264 207 202 185 191 189 193 191 190 194 196 200 205 203 205 206 211 214 210 214 220 228 227 223
275 281 287 298 308 315 319 325 330 328 319 335 324 331 326 341 339 322 346 323 295 273 266 257 209 199 181 181 186 187 186 191 193 194 199 205 203 206 204 209 212 206 215 219 227 232 227
270 276 281 293 303 311 317 323 330 329 319 337 329 339 344 351 338 349 331 340 316 268 241 242 219 190 171 188 184 182 183 189 190 196 199 201 199 204 208 207 209 202 222 226 228 233 226
265 271 276 286 298 307 316 321 329 329 319 341 332 344 345 343 349 332 330 314 336 300 263 307 198 206 181 174 178 182 181 184 191 194 200 204 204 208 207 208 206 210 226 231 225 233 228
260 265 270 279 293 304 313 319 327 331 321 340 334 340 341 348 342 330 328 325 336 336 305 356 179 174 175 170 171 179 180 182 193 193 198 199 203 206 206 202 201 215 218 224 229 234 233
255 260 264 274 287 299 307 316 324 333 319 336 340 336 340 347 351 346 339 349 2 359 323 314 166 165 165 164 168 176 179 185 191 196 205 200 199 200 204 203 215 218 215 228 238 240 242
251 254 259 267 281 294 300 311 320 328 312 325 338 337 339 340 345 345 327 34 3 41 70 52 162 164 154 148 170 176 182 187 194 195 201 205 207 207 208 212 217 223 222 233 241 244 243
248 250 253 262 273 286 293 302 315 320 316 308 329 330 335 344 341 354 341 213 67 130 66 71 170 161 153 158 160 169 177 186 196 199 201 205 207 207 211 212 217 218 220 229 238 248 252
245 247 250 256 266 278 286 293 308 311 320 294 327 331 334 348 353 344 337 347 150 156 113 94 154 156 162 160 165 176 184 190 198 201 201 202 205 206 210 214 222 222 229 234 241 247 248
241 243 245 252 259 271 279 285 297 301 321 278 318 326 344 13 7 354 341 320 206 140 157 140 167 171 159 170 163 168 187 183 196 202 205 206 208 214 216 221 221 227 228 232 239 243 250
237 240 242 246 254 263 272 277 283 288 317 265 291 316 323 37 20 16 5 25 86 153 159 158 165 179 183 176 168 170 184 192 193 195 193 201 204 208 212 218 222 224 224 227 232 238 241
238 238 239 241 248 256 263 270 273 280 304 257 246 298 276 40 58 20 12 2 52 106 181 172 168 165 181 175 165 178 182 185 185 191 195 202 205 211 218 221 222 218 221 230 235 236 242
233 234 236 238 243 249 256 263 267 268 281 256 217 250 224 102 67 75 64 38 77 105 171 177 168 156 166 186 183 187 192 187 193 187 194 202 206 207 210 206 209 212 223 231 234 238 239
227 232 234 235 240 246 251 258 263 259 261 259 211 216 225 171 314 123 84 40 107 122 144 164 178 187 192 198 198 200 193 203 210 206 197 205 204 206 207 210 217 222 223 228 232 233 238
223 229 231 232 237 243 245 250 256 256 249 256 211 202 216 203 193 192 138 97 89 127 118 161 164 165 170 175 192 194 195 198 205 201 205 212 200 208 213 216 219 223 223 229 234 236 241
220 225 226 229 233 238 240 244 250 254 248 244 211 194 214 215 204 201 195 165 123 114 120 120 164 177 175 182 180 181 193 202 203 208 217 203 207 208 210 221 225 222 226 231 239 244 248
216 223 223 226 229 234 237 236 243 248 241 240 210 192 199 211 202 196 193 186 173 150 130 131 129 141 164 184 202 205 201 206 208 209 200 199 208 215 224 233 234 231 233 237 242 243 247
214 222 221 224 225 232 233 229 235 240 233 234 209 194 193 199 201 198 193 183 180 175 172 154 150 149 163 194 186 188 208 214 215 215 209 208 211 218 219 231 232 231 243 248 251 254 253
214 216 219 223 226 232 230 225 229 232 226 227 208 198 189 194 200 199 188 179 166 170 168 164 154 147 142 152 189 192 195 212 221 214 215 218 218 224 233 245 247 251 251 244 247 253 254
216 214 220 225 226 231 227 220 224 225 220 221 207 202 194 193 196 198 194 187 179 173 170 172 169 167 172 170 165 168 168 174 180 186 204 212 220 222 225 226 233 238 243 250 252 251 251
217 220 222 223 223 225 222 216 220 222 216 216 211 205 201 200 200 200 204 201 191 192 189 183 192 188 184 179 185 192 195 202 211 216 226 233 241 241 244 243 245 242 247 247 249 251 254